Wind_Speed
68 68 68 66 65 64 63 62 62 62 62 62 63 63 64 65 66 66 65 65 65 65 65 67 68 69 71 72 73 73 73 72 72 71 71 71 70 70 70 69 68 67
65 67 68 69 69 69 68 66 65 64 63 63 64 65 65 66 68 68 68 68 67 67 67 67 68 69 70 72 73 74 75 75 74 74 74 73 73 73 72 72 72 71
63 64 66 68 69 70 71 70 70 69 68 68 67 67 68 68 69 71 71 71 71 70 70 69 69 69 70 71 73 74 75 76 76 76 76 76 76 75 74 74 74 73
64 65 66 67 68 69 70 71 72 73 74 74 74 73 73 72 72 73 74 74 75 75 74 73 73 73 72 72 73 74 76 77 78 78 78 77 77 77 76 76 76 75
69 69 70 70 70 70 71 71 72 73 75 76 77 78 78 77 76 77 77 77 78 78 79 78 78 77 77 76 76 75 76 77 78 79 79 79 79 78 78 78 78 77
76 76 76 75 75 74 73 73 73 74 75 77 79 80 81 81 80 80 81 80 80 80 80 81 81 80 80 80 80 80 80 79 79 79 80 80 81 81 80 80 79 79
80 80 81 80 79 77 74 73 74 75 76 78 80 81 83 84 84 84 84 84 84 84 84 84 83 83 82 82 82 83 83 83 82 81 81 81 81 82 82 82 82 81
83 84 84 83 81 78 76 74 74 75 76 78 80 82 84 85 87 87 87 87 88 89 90 91 90 88 86 85 85 85 84 84 84 83 82 82 81 81 81 82 82 82
83 83 83 83 82 80 79 77 76 75 75 76 79 82 84 86 88 89 88 88 88 88 90 92 94 94 92 90 89 87 85 85 86 85 84 83 82 80 80 80 81 81
81 80 80 80 81 81 81 80 79 77 76 76 77 79 82 84 87 88 88 89 89 89 88 89 91 93 96 96 93 90 88 86 87 88 88 86 84 83 81 81 80 79
79 79 79 79 80 81 81 82 82 82 82 81 81 81 82 83 84 86 87 88 90 91 92 91 90 90 92 93 93 92 91 88 87 89 90 90 89 87 85 84 82 80
84 84 84 84 84 85 86 87 88 88 88 89 89 89 89 88 89 89 89 90 91 93 95 95 95 94 92 92 92 92 92 91 90 91 92 92 92 91 90 87 85 82
94 94 95 95 94 94 94 94 95 95 95 95 95 95 95 95 95 95 96 96 98 99 100 100 100 99 97 95 94 93 93 92 92 94 95 93 91 91 91 90 88 85
99 100 100 99 98 97 96 96 97 97 98 98 98 98 98 98 98 98 98 98 99 100 101 102 102 101 100 99 97 96 95 94 94 96 98 96 93 90 89 90 89 88
99 100 100 99 98 97 96 95 94 94 95 96 97 97 98 98 98 97 97 97 97 97 98 99 99 100 100 100 99 98 97 97 97 97 98 99 98 95 92 90 89 88
100 101 101 101 101 100 99 98 96 95 94 94 94 95 96 97 97 97 96 96 96 96 96 97 97 98 98 99 98 98 97 98 98 98 99 99 99 98 96 94 92 90
101 102 102 102 102 102 102 102 101 100 99 98 97 97 97 97 97 97 97 97 97 96 96 96 96 97 97 98 98 98 97 97 97 98 99 100 100 99 97 96 95 94
99 100 100 101 101 101 102 102 103 103 103 103 102 102 101 101 100 100 100 100 100 99 99 98 98 97 98 98 99 99 99 98 98 97 98 99 101 100 99 97 95 94
94 95 96 97 97 98 99 100 101 102 103 104 104 105 105 105 105 105 104 104 104 104 104 103 102 101 100 101 101 101 102 102 101 100 99 99 99 101 101 99 97 95
90 91 92 93 94 95 97 98 99 100 101 102 103 105 106 106 107 107 107 107 107 107 108 107 106 105 105 105 105 105 105 106 106 105 103 101 100 100 101 102 101 99
87 89 90 91 92 94 95 96 97 98 99 100 101 102 103 104 105 106 107 108 108 109 109 109 109 108 108 109 109 108 109 109 110 109 108 106 104 102 101 102 102 102
84 85 87 88 89 91 92 94 95 96 97 98 99 99 100 100 101 102 103 105 106 107 109 109 109 109 109 109 110 110 110 110 111 112 111 111 109 107 105 104 103 104
81 82 84 85 86 87 89 90 91 92 93 95 96 97 96 96 96 97 98 99 100 102 104 105 106 106 106 107 108 109 109 110 110 111 111 112 112 111 110 109 107 105
80 81 82 83 84 85 87 87 88 89 90 91 92 93 93 93 93 93 93 93 94 95 97 99 100 100 100 101 102 104 105 106 108 108 109 110 111 112 112 112 111 109
80 81 83 84 85 85 86 87 87 88 89 89 90 91 91 91 91 92 91 90 91 92 92 94 95 95 95 96 97 98 99 101 103 105 106 106 106 107 109 111 112 112
81 82 83 85 85 86 86 87 87 88 88 89 89 90 90 90 90 90 91 89 89 90 90 91 92 92 92 93 94 96 96 98 99 101 102 102 101 100 102 105 108 110
Wind_Direction
270 271 272 272 271 270 269 269 268 267 266 264 263 262 262 263 263 263 263 263 263 263 262 263 263 263 262 262 262 261 260 260 261 262 263 265 266 266 266 266 266 265
261 263 265 267 268 269 269 269 268 267 266 264 262 262 261 262 262 262 263 264 263 263 262 262 262 262 262 262 262 261 261 260 260 261 261 262 263 264 265 265 266 265
256 256 258 259 261 263 265 267 268 268 268 266 264 263 262 261 260 261 262 262 262 262 263 263 262 262 261 261 261 261 261 261 260 260 260 261 261 262 263 264 265 265
257 257 258 259 259 260 260 261 263 265 266 267 267 266 264 262 260 259 259 260 260 261 262 263 263 263 262 261 260 259 259 259 260 260 260 260 260 260 261 262 263 263
260 261 263 264 264 264 263 261 260 259 260 261 262 264 264 264 263 262 261 260 260 260 261 262 262 262 262 262 261 260 259 258 258 259 259 259 259 259 260 260 261 261
264 265 266 267 269 269 267 263 260 257 255 255 256 257 259 261 262 263 263 263 263 263 263 264 264 264 263 262 262 262 261 260 259 259 258 258 259 259 259 260 260 260
269 269 270 271 272 271 268 264 260 258 256 255 255 255 255 256 257 258 260 262 263 263 264 265 265 266 267 267 266 264 264 263 262 261 260 259 258 258 259 259 259 259
273 273 273 273 273 272 269 265 262 260 258 257 256 255 255 255 255 255 256 257 259 260 262 264 265 265 267 269 269 268 268 267 265 264 263 262 261 259 258 258 258 258
274 273 272 271 271 270 269 267 265 263 262 260 258 257 257 257 257 257 257 257 257 258 259 260 262 264 265 268 269 268 267 268 268 267 266 265 264 262 261 259 258 257
272 270 269 268 267 267 267 266 265 265 265 264 263 261 260 260 260 261 261 261 261 261 261 260 260 262 264 266 267 266 265 266 267 268 267 266 265 264 263 262 261 259
269 267 267 266 266 266 267 267 268 268 268 269 268 267 266 265 264 263 263 263 263 264 265 265 265 264 264 265 266 266 265 264 264 266 266 266 265 264 263 263 262 260
271 271 270 270 270 270 270 271 272 272 272 272 272 272 271 270 269 268 267 267 267 266 267 267 267 267 266 266 265 266 266 265 263 263 264 264 264 263 263 262 261 260
273 274 274 275 275 275 274 274 274 274 274 273 273 273 273 272 272 271 271 271 270 270 270 269 268 268 267 266 265 264 264 264 263 262 263 263 262 262 261 261 260 260
274 274 275 276 277 277 277 276 275 275 274 274 273 272 272 272 272 271 271 270 270 269 268 268 268 267 267 266 265 264 263 262 262 262 262 263 262 261 260 260 259 259
275 275 275 276 277 277 277 277 276 275 275 274 274 273 273 272 272 271 271 270 269 268 267 266 266 266 266 266 265 264 263 262 261 261 262 263 263 263 261 260 259 259
275 276 276 276 276 276 276 276 276 275 275 274 274 273 273 273 272 272 271 270 269 268 267 266 265 265 264 264 264 264 263 262 261 260 260 261 262 263 262 262 260 259
276 276 276 276 277 277 276 276 276 275 275 274 273 272 272 271 271 271 270 270 269 268 267 266 266 265 265 264 264 263 263 262 261 260 260 260 260 261 262 262 261 260
276 276 276 276 276 276 276 276 276 276 275 275 274 273 272 271 270 270 269 269 269 268 267 267 266 266 265 265 265 264 263 262 261 259 258 258 258 259 259 260 260 260
276 276 276 276 276 276 276 276 276 276 275 275 275 274 273 272 271 271 270 269 269 268 267 267 266 265 265 265 265 265 265 264 263 261 259 257 256 256 257 257 258 258
278 278 278 277 277 277 276 276 276 276 276 275 275 275 274 274 273 272 271 270 270 269 268 267 267 266 265 265 265 265 265 264 264 262 261 259 257 255 255 255 255 256
279 279 279 278 278 277 277 277 277 276 276 276 276 275 275 275 274 274 273 272 271 271 270 269 268 267 267 266 265 265 265 265 264 263 262 260 259 257 255 254 253 253
281 281 280 280 279 279 279 278 278 278 278 277 277 276 276 275 275 275 274 274 273 272 271 270 269 268 268 267 266 266 265 264 264 264 263 261 259 258 257 255 254 252
283 283 282 282 282 281 281 280 280 280 279 279 279 278 277 277 276 275 275 274 274 273 273 272 271 269 269 268 267 267 266 264 263 263 263 262 260 258 257 256 255 254
285 285 284 284 283 283 283 282 282 281 281 281 280 280 279 278 277 276 275 274 274 273 273 272 272 271 270 269 268 268 267 266 264 263 261 261 260 259 258 256 255 254
286 285 285 285 285 284 284 284 283 283 282 282 281 281 280 279 278 278 276 275 274 273 273 272 272 271 271 270 269 268 268 267 266 264 262 260 259 259 258 257 256 254
287 286 286 286 286 286 285 285 285 284 284 283 282 281 281 280 279 278 277 276 275 274 273 272 271 271 270 270 269 269 268 268 267 266 264 263 260 258 257 256 256 254
Height
5684 5683 5682 5681 5681 5680 5681 5680 5680 5680 5680 5680 5680 5680 5681 5681 5681 5681 5680 5680 5680 5680 5680 5680 5681 5681 5681 5681 5680 5680 5680 5680 5680 5680 5679 5680 5680 5680 5680 5680 5680 5681
5675 5675 5674 5673 5672 5671 5671 5670 5670 5670 5670 5670 5670 5670 5670 5670 5670 5671 5671 5670 5670 5669 5669 5669 5670 5671 5671 5671 5671 5671 5671 5671 5671 5670 5670 5671 5671 5671 5672 5671 5671 5672
5665 5665 5664 5664 5663 5662 5662 5661 5660 5660 5659 5659 5660 5660 5660 5660 5660 5660 5660 5660 5660 5659 5659 5659 5659 5660 5660 5661 5661 5661 5661 5661 5661 5661 5661 5662 5662 5662 5662 5662 5662 5663
5654 5654 5654 5653 5653 5653 5652 5652 5651 5650 5649 5648 5648 5648 5648 5648 5649 5649 5649 5649 5649 5649 5648 5648 5648 5648 5649 5649 5650 5650 5651 5651 5651 5650 5651 5652 5652 5652 5652 5652 5653 5654
5644 5643 5643 5642 5642 5642 5641 5641 5641 5640 5639 5639 5638 5637 5636 5636 5636 5636 5636 5637 5637 5637 5637 5637 5637 5637 5637 5637 5638 5638 5639 5640 5640 5640 5641 5642 5641 5642 5642 5642 5643 5644
5634 5633 5632 5631 5630 5630 5629 5629 5629 5628 5628 5627 5627 5626 5626 5625 5625 5624 5624 5624 5624 5624 5624 5624 5624 5625 5625 5625 5626 5626 5626 5627 5628 5628 5630 5631 5631 5631 5632 5631 5632 5634
5622 5621 5620 5619 5618 5618 5617 5617 5617 5616 5616 5616 5615 5615 5615 5615 5615 5614 5614 5613 5613 5612 5612 5612 5612 5612 5612 5613 5613 5613 5613 5614 5615 5616 5618 5619 5620 5621 5621 5621 5622 5623
5610 5609 5608 5607 5606 5605 5605 5605 5604 5604 5604 5604 5604 5603 5603 5603 5603 5604 5604 5604 5603 5603 5602 5601 5601 5601 5601 5601 5601 5601 5601 5601 5602 5603 5605 5606 5608 5609 5610 5610 5611 5613
5598 5597 5596 5595 5594 5593 5593 5592 5592 5592 5592 5592 5592 5591 5591 5591 5590 5591 5591 5591 5591 5592 5592 5591 5590 5590 5589 5590 5590 5590 5589 5589 5589 5590 5592 5593 5595 5596 5597 5597 5599 5602
5586 5585 5584 5583 5582 5581 5581 5580 5580 5579 5579 5579 5579 5579 5579 5579 5578 5578 5578 5578 5578 5578 5578 5579 5579 5579 5578 5578 5578 5578 5578 5578 5578 5578 5579 5580 5582 5583 5584 5585 5586 5589
5573 5572 5572 5571 5570 5569 5568 5567 5567 5566 5566 5566 5566 5566 5566 5566 5566 5566 5566 5566 5566 5565 5565 5565 5566 5567 5567 5566 5566 5566 5566 5567 5567 5567 5568 5568 5569 5571 5572 5573 5574 5576
5559 5558 5558 5557 5557 5556 5555 5554 5553 5553 5553 5552 5552 5552 5552 5552 5552 5552 5553 5553 5553 5554 5554 5553 5553 5554 5554 5554 5554 5554 5554 5555 5555 5556 5556 5557 5558 5559 5560 5561 5563 5564
5545 5544 5543 5543 5542 5542 5541 5541 5540 5540 5540 5539 5539 5538 5538 5538 5538 5538 5538 5539 5539 5539 5539 5539 5540 5541 5541 5541 5541 5541 5542 5542 5543 5543 5544 5545 5546 5547 5548 5549 5551 5552
5531 5530 5529 5528 5528 5527 5526 5526 5525 5525 5525 5525 5525 5524 5524 5524 5524 5524 5524 5524 5524 5525 5525 5524 5525 5525 5526 5526 5526 5527 5528 5528 5530 5530 5531 5532 5534 5535 5536 5537 5538 5540
5516 5515 5514 5513 5512 5512 5512 5511 5511 5511 5511 5510 5509 5509 5509 5508 5509 5509 5509 5509 5509 5509 5510 5510 5510 5511 5511 5510 5510 5511 5512 5513 5515 5516 5517 5518 5519 5522 5523 5525 5526 5527
5500 5499 5498 5497 5496 5496 5496 5495 5495 5495 5495 5495 5495 5493 5493 5492 5493 5493 5493 5493 5494 5494 5494 5494 5495 5496 5496 5494 5494 5495 5495 5497 5499 5501 5502 5503 5505 5507 5509 5511 5513 5514
5486 5485 5483 5482 5481 5479 5479 5478 5477 5477 5477 5478 5478 5478 5478 5477 5477 5478 5477 5477 5477 5478 5479 5479 5479 5480 5480 5479 5479 5479 5479 5480 5482 5485 5487 5488 5490 5493 5495 5497 5498 5500
5473 5471 5470 5468 5467 5464 5463 5462 5460 5459 5458 5458 5458 5459 5460 5461 5462 5462 5462 5461 5460 5460 5462 5463 5464 5465 5465 5464 5463 5463 5462 5462 5464 5468 5471 5473 5475 5477 5480 5482 5484 5485
5459 5458 5456 5455 5453 5450 5448 5446 5444 5443 5442 5440 5440 5440 5441 5442 5444 5444 5445 5445 5444 5443 5444 5446 5447 5450 5450 5448 5448 5448 5447 5445 5446 5449 5453 5456 5459 5462 5464 5467 5469 5471
5446 5444 5442 5441 5439 5436 5433 5432 5430 5428 5427 5425 5423 5422 5423 5423 5424 5425 5426 5426 5426 5425 5426 5427 5430 5433 5433 5431 5431 5431 5431 5429 5428 5430 5434 5438 5442 5445 5448 5451 5454 5455
5433 5430 5428 5426 5424 5421 5419 5417 5415 5413 5411 5410 5407 5406 5406 5406 5405 5405 5406 5406 5407 5406 5405 5407 5412 5415 5414 5412 5412 5413 5413 5411 5410 5412 5416 5420 5423 5427 5430 5434 5437 5439
5420 5417 5415 5413 5410 5407 5405 5402 5400 5398 5396 5394 5391 5390 5390 5390 5389 5388 5387 5387 5388 5387 5385 5386 5391 5395 5394 5392 5392 5393 5393 5393 5392 5392 5395 5399 5405 5409 5412 5415 5419 5422
5408 5404 5402 5400 5397 5394 5391 5389 5386 5383 5381 5378 5374 5373 5374 5374 5373 5372 5371 5370 5369 5369 5367 5365 5369 5374 5375 5373 5372 5372 5372 5372 5372 5374 5376 5378 5384 5390 5393 5396 5400 5405
5396 5392 5389 5386 5384 5381 5377 5375 5372 5369 5367 5363 5359 5356 5356 5357 5355 5353 5354 5354 5352 5351 5350 5347 5348 5353 5356 5353 5352 5352 5350 5349 5350 5352 5355 5359 5364 5369 5373 5377 5381 5386
5385 5381 5377 5373 5370 5367 5364 5361 5358 5355 5352 5349 5345 5341 5339 5339 5338 5336 5335 5337 5336 5334 5334 5331 5331 5334 5337 5335 5333 5333 5331 5328 5328 5328 5331 5338 5346 5350 5352 5356 5360 5367
5374 5369 5365 5361 5357 5354 5351 5348 5344 5340 5337 5334 5330 5327 5324 5323 5322 5319 5316 5319 5320 5318 5317 5316 5315 5316 5319 5318 5315 5314 5313 5311 5308 5307 5309 5316 5324 5329 5332 5336 5340 5347